| time (UTC) | temp C | wind direction | speed KPH | gust KPH | rain 1hr cm | rain 24hr cm | rain mn cm | humidity % | barometer mb |
| 20260906181052 | 37 | 118 | 0.0 | 0.0 | 0.00 | 0.00 | 0.00 | 47 | 1015.9 |
| 20260906180551 | 37 | 85 | 1.6 | 3.2 | 0.00 | 0.00 | 0.00 | 46 | 1016.0 |
| 20260906180050 | 37 | 190 | 0.0 | 1.6 | 0.00 | 0.00 | 0.00 | 46 | 1015.9 |
| 20260906175549 | 37 | 136 | 1.6 | 1.6 | 0.00 | 0.00 | 0.00 | 47 | 1016.1 |
| 20260906175044 | 36 | 22 | 3.2 | 4.8 | 0.00 | 0.00 | 0.00 | 46 | 1016.0 |
| 20260906174543 | 36 | 62 | 3.2 | 3.2 | 0.00 | 0.00 | 0.00 | 48 | 1016.3 |
| 20260906174038 | 35 | 124 | 3.2 | 3.2 | 0.00 | 0.00 | 0.00 | 49 | 1016.3 |
| 20260906173532 | 35 | 130 | 6.4 | 6.4 | 0.00 | 0.00 | 0.00 | 49 | 1016.3 |
| 20260906173028 | 35 | 53 | 4.8 | 6.4 | 0.00 | 0.00 | 0.00 | 48 | 1016.5 |
| 20260906172523 | 35 | 112 | 6.4 | 9.7 | 0.00 | 0.00 | 0.00 | 49 | 1016.6 |
| 20260906172018 | 35 | 111 | 3.2 | 4.8 | 0.00 | 0.00 | 0.00 | 47 | 1016.7 |
| 20260906171513 | 35 | 81 | 3.2 | 3.2 | 0.00 | 0.00 | 0.00 | 50 | 1016.6 |
| 20260906171009 | 35 | 164 | 6.4 | 6.4 | 0.00 | 0.00 | 0.00 | 50 | 1016.7 |
| 20260906170505 | 35 | 137 | 0.0 | 0.0 | 0.00 | 0.00 | 0.00 | 51 | 1016.8 |
| 20260906170003 | 35 | 133 | 4.8 | 4.8 | 0.00 | 0.00 | 0.00 | 51 | 1017.0 |
| 20260906165500 | 34 | 75 | 4.8 | 6.4 | 0.00 | 0.00 | 0.00 | 52 | 1017.1 |
| 20260906164955 | 35 | 88 | 0.0 | 1.6 | 0.00 | 0.00 | 0.00 | 51 | 1016.9 |
| 20260906164454 | 34 | 128 | 3.2 | 4.8 | 0.00 | 0.00 | 0.00 | 53 | 1017.0 |
| 20260906163951 | 34 | 149 | 8.0 | 9.7 | 0.00 | 0.00 | 0.00 | 51 | 1016.9 |
| 20260906163446 | 35 | 125 | 4.8 | 4.8 | 0.00 | 0.00 | 0.00 | 52 | 1017.1 |
| 20260906162944 | 35 | 126 | 3.2 | 4.8 | 0.00 | 0.00 | 0.00 | 51 | 1017.0 |
| 20260906162443 | 34 | 153 | 8.0 | 9.7 | 0.00 | 0.00 | 0.00 | 52 | 1017.0 |
| 20260906161937 | 34 | 143 | 6.4 | 6.4 | 0.00 | 0.00 | 0.00 | 52 | 1017.1 |
| 20260906161432 | 33 | 129 | 6.4 | 6.4 | 0.00 | 0.00 | 0.00 | 54 | 1017.3 |
| 20260906160931 | 34 | 125 | 9.7 | 9.7 | 0.00 | 0.00 | 0.00 | 53 | 1017.2 |
| 20260906160425 | 34 | 121 | 9.7 | 11.3 | 0.00 | 0.00 | 0.00 | 53 | 1017.1 |
| 20260906155923 | 34 | 91 | 1.6 | 3.2 | 0.00 | 0.00 | 0.00 | 52 | 1017.0 |
| 20260906155416 | 35 | 101 | 1.6 | 3.2 | 0.00 | 0.00 | 0.00 | 53 | 1017.1 |
| 20260906154913 | 35 | 48 | 1.6 | 3.2 | 0.00 | 0.00 | 0.00 | 52 | 1016.7 |
| 20260906154407 | 35 | 142 | 6.4 | 9.7 | 0.00 | 0.00 | 0.00 | 51 | 1017.1 |
| 20260906153906 | 35 | 25 | 0.0 | 1.6 | 0.00 | 0.00 | 0.00 | 52 | 1017.0 |
| 20260906153405 | 35 | 52 | 1.6 | 3.2 | 0.00 | 0.00 | 0.00 | 52 | 1017.0 |
| 20260906152900 | 34 | 89 | 3.2 | 4.8 | 0.00 | 0.00 | 0.00 | 53 | 1016.6 |
| 20260906152355 | 34 | 22 | 3.2 | 3.2 | 0.00 | 0.00 | 0.00 | 54 | 1016.9 |
| 20260906151854 | 33 | 73 | 1.6 | 1.6 | 0.00 | 0.00 | 0.00 | 55 | 1016.7 |
| 20260906151350 | 33 | 96 | 0.0 | 0.0 | 0.00 | 0.00 | 0.00 | 55 | 1016.8 |
| 20260906150846 | 33 | 110 | 1.6 | 1.6 | 0.00 | 0.00 | 0.00 | 54 | 1016.6 |
| 20260906150341 | 33 | 62 | 3.2 | 3.2 | 0.00 | 0.00 | 0.00 | 56 | 1016.8 |
| 20260906145840 | 33 | 61 | 1.6 | 1.6 | 0.00 | 0.00 | 0.00 | 55 | 1016.7 |
| 20260906145339 | 33 | 76 | 1.6 | 3.2 | 0.00 | 0.00 | 0.00 | 56 | 1016.6 |
| 20260906144834 | 33 | 76 | 1.6 | 1.6 | 0.00 | 0.00 | 0.00 | 56 | 1016.8 |
| 20260906144329 | 33 | 63 | 1.6 | 3.2 | 0.00 | 0.00 | 0.00 | 57 | 1016.7 |
| 20260906143829 | 32 | 61 | 0.0 | 1.6 | 0.00 | 0.00 | 0.00 | 58 | 1016.8 |
| 20260906143325 | 32 | 21 | 1.6 | 3.2 | 0.00 | 0.00 | 0.00 | 58 | 1016.7 |
| 20260906142821 | 32 | 76 | 0.0 | 1.6 | 0.00 | 0.00 | 0.00 | 58 | 1016.8 |
| 20260906142315 | 32 | 92 | 0.0 | 0.0 | 0.00 | 0.00 | 0.00 | 60 | 1017.0 |
| 20260906141815 | 31 | 122 | 3.2 | 3.2 | 0.00 | 0.00 | 0.00 | 61 | 1016.7 |
| 20260906141310 | 30 | 25 | 1.6 | 3.2 | 0.00 | 0.00 | 0.00 | 63 | 1016.8 |
| 20260906140808 | 30 | 20 | 3.2 | 3.2 | 0.00 | 0.00 | 0.00 | 63 | 1016.8 |
| 20260906140303 | 30 | 50 | 3.2 | 3.2 | 0.00 | 0.00 | 0.00 | 64 | 1016.8 |
| 20260906135801 | 30 | 23 | 6.4 | 6.4 | 0.00 | 0.00 | 0.00 | 64 | 1016.6 |
| 20260906135256 | 30 | 86 | 1.6 | 1.6 | 0.00 | 0.00 | 0.00 | 65 | 1016.6 |
| 20260906134752 | 30 | 36 | 1.6 | 3.2 | 0.00 | 0.00 | 0.00 | 66 | 1016.6 |
| 20260906134247 | 29 | 21 | 3.2 | 3.2 | 0.00 | 0.00 | 0.00 | 67 | 1016.4 |
| 20260906133742 | 29 | 37 | 4.8 | 4.8 | 0.00 | 0.00 | 0.00 | 67 | 1016.4 |
| 20260906133238 | 29 | 61 | 1.6 | 1.6 | 0.00 | 0.00 | 0.00 | 68 | 1016.6 |
| 20260906132733 | 28 | 66 | 0.0 | 0.0 | 0.00 | 0.00 | 0.00 | 68 | 1016.3 |
| 20260906132228 | 28 | 62 | 1.6 | 1.6 | 0.00 | 0.00 | 0.00 | 68 | 1016.2 |
| 20260906131724 | 28 | 67 | 0.0 | 0.0 | 0.00 | 0.00 | 0.00 | 68 | 1016.3 |
| 20260906131219 | 28 | 66 | 0.0 | 0.0 | 0.00 | 0.00 | 0.00 | 68 | 1016.2 |
| 20260906130714 | 27 | 66 | 0.0 | 0.0 | 0.00 | 0.00 | 0.00 | 72 | 1016.1 |
| 20260906130209 | 27 | 75 | 0.0 | 1.6 | 0.00 | 0.00 | 0.00 | 73 | 1015.9 |
| 20260906125708 | 26 | 90 | 0.0 | 0.0 | 0.00 | 0.00 | 0.00 | 74 | 1016.1 |
| 20260906125206 | 26 | 72 | 0.0 | 0.0 | 0.00 | 0.00 | 0.00 | 75 | 1015.9 |
| 20260906124701 | 25 | 85 | 0.0 | 0.0 | 0.00 | 0.00 | 0.00 | 77 | 1016.0 |
| 20260906124156 | 25 | 85 | 0.0 | 0.0 | 0.00 | 0.00 | 0.00 | 78 | 1015.8 |
| 20260906123655 | 24 | 104 | 0.0 | 0.0 | 0.00 | 0.00 | 0.00 | 80 | 1015.8 |
| 20260906123151 | 24 | 105 | 0.0 | 0.0 | 0.00 | 0.00 | 0.00 | 80 | 1015.9 |
| 20260906122650 | 23 | 105 | 0.0 | 0.0 | 0.00 | 0.00 | 0.00 | 80 | 1015.6 |
| 20260906122146 | 23 | 105 | 0.0 | 0.0 | 0.00 | 0.00 | 0.00 | 80 | 1015.8 |
| 20260906121642 | 23 | 105 | 0.0 | 0.0 | 0.00 | 0.00 | 0.00 | 80 | 1015.6 |
| 20260906121138 | 23 | 105 | 0.0 | 0.0 | 0.00 | 0.00 | 0.00 | 80 | 1015.7 |
| 20260906120633 | 23 | 105 | 0.0 | 0.0 | 0.00 | 0.00 | 0.00 | 79 | 1015.6 |
| 20260906120130 | 24 | 105 | 0.0 | 0.0 | 0.00 | 0.00 | 0.00 | 79 | 1015.3 |
| 20260906115625 | 24 | 105 | 0.0 | 0.0 | 0.00 | 0.00 | 0.00 | 78 | 1015.6 |
| 20260906115121 | 24 | 105 | 0.0 | 0.0 | 0.00 | 0.00 | 0.00 | 78 | 1015.7 |
| 20260906114619 | 25 | 57 | 0.0 | 0.0 | 0.00 | 0.00 | 0.00 | 77 | 1015.5 |
| 20260906114114 | 24 | 83 | 0.0 | 0.0 | 0.00 | 0.00 | 0.00 | 78 | 1015.6 |
| 20260906113609 | 24 | 85 | 0.0 | 0.0 | 0.00 | 0.00 | 0.00 | 78 | 1015.5 |
| 20260906113104 | 24 | 85 | 0.0 | 0.0 | 0.00 | 0.00 | 0.00 | 79 | 1015.5 |
| 20260906112603 | 23 | 86 | 0.0 | 0.0 | 0.00 | 0.00 | 0.00 | 80 | 1015.5 |
| 20260906112100 | 23 | 86 | 0.0 | 0.0 | 0.00 | 0.00 | 0.00 | 80 | 1015.3 |
| 20260906111559 | 23 | 86 | 0.0 | 0.0 | 0.00 | 0.00 | 0.00 | 80 | 1015.5 |
| 20260906111055 | 23 | 86 | 0.0 | 0.0 | 0.00 | 0.00 | 0.00 | 80 | 1015.5 |
| 20260906110554 | 23 | 86 | 0.0 | 0.0 | 0.00 | 0.00 | 0.00 | 80 | 1015.4 |
| 20260906110054 | 23 | 86 | 0.0 | 0.0 | 0.00 | 0.00 | 0.00 | 80 | 1015.3 |
| 20260906105549 | 23 | 86 | 0.0 | 0.0 | 0.00 | 0.00 | 0.00 | 80 | 1015.3 |
| 20260906105045 | 23 | 86 | 0.0 | 0.0 | 0.00 | 0.00 | 0.00 | 80 | 1015.4 |
| 20260906104543 | 23 | 86 | 0.0 | 0.0 | 0.00 | 0.00 | 0.00 | 80 | 1015.3 |
| 20260906104038 | 23 | 86 | 0.0 | 0.0 | 0.00 | 0.00 | 0.00 | 80 | 1015.4 |
| 20260906103536 | 24 | 86 | 0.0 | 0.0 | 0.00 | 0.00 | 0.00 | 79 | 1015.4 |
| 20260906103032 | 24 | 86 | 0.0 | 0.0 | 0.00 | 0.00 | 0.00 | 79 | 1015.4 |
| 20260906102532 | 24 | 86 | 0.0 | 0.0 | 0.00 | 0.00 | 0.00 | 79 | 1015.3 |
| 20260906102027 | 24 | 86 | 0.0 | 0.0 | 0.00 | 0.00 | 0.00 | 78 | 1015.2 |
| 20260906101521 | 24 | 85 | 0.0 | 0.0 | 0.00 | 0.00 | 0.00 | 78 | 1015.2 |
| 20260906101016 | 24 | 86 | 0.0 | 0.0 | 0.00 | 0.00 | 0.00 | 78 | 1015.2 |
| 20260906100512 | 24 | 86 | 0.0 | 0.0 | 0.00 | 0.00 | 0.00 | 79 | 1015.2 |
| 20260906100006 | 24 | 86 | 0.0 | 0.0 | 0.00 | 0.00 | 0.00 | 78 | 1015.2 |
| 20260906095501 | 24 | 86 | 0.0 | 0.0 | 0.00 | 0.00 | 0.00 | 79 | 1015.2 |
| 20260906094956 | 24 | 86 | 0.0 | 0.0 | 0.00 | 0.00 | 0.00 | 79 | 1015.1 |
| 20260906094455 | 24 | 86 | 0.0 | 0.0 | 0.00 | 0.00 | 0.00 | 79 | 1015.2 |
| 20260906093952 | 24 | 86 | 0.0 | 0.0 | 0.00 | 0.00 | 0.00 | 79 | 1014.9 |
| 20260906093448 | 24 | 86 | 0.0 | 0.0 | 0.00 | 0.00 | 0.00 | 79 | 1015.1 |
| 20260906092947 | 24 | 86 | 0.0 | 0.0 | 0.00 | 0.00 | 0.00 | 79 | 1014.8 |
| 20260906092442 | 24 | 88 | 0.0 | 0.0 | 0.00 | 0.00 | 0.00 | 79 | 1015.2 |
| 20260906091937 | 25 | 88 | 0.0 | 0.0 | 0.00 | 0.00 | 0.00 | 79 | 1015.1 |
| 20260906091433 | 25 | 88 | 0.0 | 0.0 | 0.00 | 0.00 | 0.00 | 78 | 1014.9 |
| 20260906090929 | 25 | 88 | 0.0 | 0.0 | 0.00 | 0.00 | 0.00 | 78 | 1014.8 |
| 20260906090424 | 25 | 88 | 0.0 | 0.0 | 0.00 | 0.00 | 0.00 | 78 | 1014.7 |
| 20260906085918 | 25 | 88 | 0.0 | 0.0 | 0.00 | 0.00 | 0.00 | 78 | 1014.9 |
| 20260906085412 | 24 | 96 | 0.0 | 0.0 | 0.00 | 0.00 | 0.00 | 78 | 1014.7 |
| 20260906084912 | 24 | 96 | 0.0 | 0.0 | 0.00 | 0.00 | 0.00 | 79 | 1014.7 |
| 20260906084406 | 24 | 96 | 0.0 | 0.0 | 0.00 | 0.00 | 0.00 | 78 | 1014.6 |
| 20260906083900 | 25 | 96 | 0.0 | 0.0 | 0.00 | 0.00 | 0.00 | 78 | 1014.9 |
| 20260906083355 | 24 | 96 | 0.0 | 0.0 | 0.00 | 0.00 | 0.00 | 78 | 1014.4 |
| 20260906082855 | 24 | 96 | 0.0 | 0.0 | 0.00 | 0.00 | 0.00 | 78 | 1014.9 |
| 20260906082350 | 24 | 96 | 0.0 | 0.0 | 0.00 | 0.00 | 0.00 | 78 | 1014.6 |
| 20260906081847 | 25 | 96 | 0.0 | 0.0 | 0.00 | 0.00 | 0.00 | 77 | 1014.5 |
| 20260906081347 | 25 | 96 | 0.0 | 0.0 | 0.00 | 0.00 | 0.00 | 77 | 1014.6 |
| 20260906080843 | 25 | 96 | 0.0 | 0.0 | 0.00 | 0.00 | 0.00 | 76 | 1014.7 |
| 20260906080339 | 25 | 96 | 0.0 | 0.0 | 0.00 | 0.00 | 0.00 | 76 | 1014.8 |
| 20260906075838 | 25 | 96 | 0.0 | 0.0 | 0.00 | 0.00 | 0.00 | 76 | 1014.5 |
| 20260906075333 | 25 | 96 | 0.0 | 0.0 | 0.00 | 0.00 | 0.00 | 75 | 1014.5 |
| 20260906074829 | 25 | 96 | 0.0 | 0.0 | 0.00 | 0.00 | 0.00 | 75 | 1014.7 |
| 20260906074328 | 25 | 96 | 0.0 | 0.0 | 0.00 | 0.00 | 0.00 | 75 | 1014.5 |
| 20260906073827 | 25 | 96 | 0.0 | 0.0 | 0.00 | 0.00 | 0.00 | 75 | 1014.8 |
| 20260906073322 | 25 | 96 | 0.0 | 0.0 | 0.00 | 0.00 | 0.00 | 74 | 1014.6 |
| 20260906072819 | 25 | 96 | 0.0 | 0.0 | 0.00 | 0.00 | 0.00 | 74 | 1014.6 |
| 20260906072314 | 25 | 96 | 0.0 | 0.0 | 0.00 | 0.00 | 0.00 | 74 | 1014.8 |
| 20260906071810 | 26 | 96 | 0.0 | 0.0 | 0.00 | 0.00 | 0.00 | 74 | 1014.6 |
| 20260906071304 | 26 | 96 | 0.0 | 0.0 | 0.00 | 0.00 | 0.00 | 73 | 1014.7 |
| 20260906070800 | 26 | 96 | 0.0 | 0.0 | 0.00 | 0.00 | 0.00 | 72 | 1014.5 |
| 20260906070256 | 26 | 96 | 0.0 | 0.0 | 0.00 | 0.00 | 0.00 | 72 | 1014.7 |
| 20260906065750 | 26 | 96 | 0.0 | 0.0 | 0.00 | 0.00 | 0.00 | 72 | 1014.7 |
| 20260906065246 | 26 | 96 | 0.0 | 0.0 | 0.00 | 0.00 | 0.00 | 72 | 1014.9 |
| 20260906064741 | 26 | 96 | 0.0 | 0.0 | 0.00 | 0.00 | 0.00 | 73 | 1014.8 |
| 20260906064237 | 26 | 96 | 0.0 | 0.0 | 0.00 | 0.00 | 0.00 | 73 | 1014.7 |
| 20260906063732 | 26 | 96 | 0.0 | 0.0 | 0.00 | 0.00 | 0.00 | 73 | 1015.1 |
| 20260906063227 | 26 | 96 | 0.0 | 0.0 | 0.00 | 0.00 | 0.00 | 72 | 1014.8 |
| 20260906062722 | 26 | 96 | 0.0 | 0.0 | 0.00 | 0.00 | 0.00 | 71 | 1014.8 |
| 20260906062221 | 26 | 96 | 0.0 | 0.0 | 0.00 | 0.00 | 0.00 | 71 | 1014.9 |
| 20260906061718 | 26 | 77 | 0.0 | 0.0 | 0.00 | 0.00 | 0.00 | 71 | 1015.1 |
| 20260906061214 | 27 | 77 | 0.0 | 0.0 | 0.00 | 0.00 | 0.00 | 70 | 1015.1 |
| 20260906060709 | 27 | 83 | 0.0 | 0.0 | 0.00 | 0.00 | 0.00 | 70 | 1015.1 |
| 20260906060207 | 26 | 90 | 0.0 | 0.0 | 0.00 | 0.00 | 0.00 | 70 | 1014.9 |
| 20260906055702 | 27 | 90 | 0.0 | 0.0 | 0.00 | 0.00 | 0.00 | 70 | 1014.9 |
| 20260906055156 | 27 | 90 | 0.0 | 0.0 | 0.00 | 0.00 | 0.00 | 70 | 1015.1 |
| 20260906054651 | 27 | 90 | 0.0 | 0.0 | 0.00 | 0.00 | 0.00 | 70 | 1015.2 |
| 20260906054146 | 27 | 90 | 0.0 | 0.0 | 0.00 | 0.00 | 0.00 | 70 | 1015.1 |
| 20260906053643 | 27 | 90 | 0.0 | 0.0 | 0.00 | 0.00 | 0.00 | 70 | 1015.3 |
| 20260906053138 | 27 | 90 | 0.0 | 0.0 | 0.00 | 0.00 | 0.00 | 71 | 1015.1 |
| 20260906052633 | 27 | 91 | 0.0 | 0.0 | 0.00 | 0.00 | 0.00 | 71 | 1015.3 |
| 20260906052130 | 27 | 90 | 0.0 | 0.0 | 0.00 | 0.00 | 0.00 | 70 | 1015.3 |
| 20260906051626 | 27 | 90 | 0.0 | 0.0 | 0.00 | 0.00 | 0.00 | 70 | 1015.4 |
| 20260906051126 | 27 | 91 | 0.0 | 0.0 | 0.00 | 0.00 | 0.00 | 71 | 1015.2 |
| 20260906050622 | 26 | 91 | 0.0 | 0.0 | 0.00 | 0.00 | 0.00 | 72 | 1015.1 |
| 20260906050117 | 26 | 90 | 0.0 | 0.0 | 0.00 | 0.00 | 0.00 | 73 | 1015.1 |
| 20260906045615 | 26 | 90 | 0.0 | 0.0 | 0.00 | 0.00 | 0.00 | 73 | 1015.2 |
| 20260906045110 | 26 | 90 | 0.0 | 0.0 | 0.00 | 0.00 | 0.00 | 73 | 1014.9 |
| 20260906044606 | 26 | 90 | 0.0 | 0.0 | 0.00 | 0.00 | 0.00 | 73 | 1015.3 |
| 20260906044101 | 26 | 90 | 0.0 | 0.0 | 0.00 | 0.00 | 0.00 | 72 | 1015.1 |
| 20260906043557 | 27 | 90 | 0.0 | 0.0 | 0.00 | 0.00 | 0.00 | 72 | 1015.3 |
| 20260906043053 | 27 | 90 | 0.0 | 0.0 | 0.00 | 0.00 | 0.00 | 72 | 1015.2 |
| 20260906042551 | 27 | 90 | 0.0 | 0.0 | 0.00 | 0.00 | 0.00 | 72 | 1015.1 |
| 20260906042046 | 27 | 90 | 0.0 | 0.0 | 0.00 | 0.00 | 0.00 | 71 | 1014.9 |
| 20260906041543 | 27 | 90 | 0.0 | 0.0 | 0.00 | 0.00 | 0.00 | 71 | 1014.8 |
| 20260906041037 | 27 | 90 | 0.0 | 0.0 | 0.00 | 0.00 | 0.00 | 71 | 1015.1 |
| 20260906040532 | 27 | 90 | 0.0 | 0.0 | 0.00 | 0.00 | 0.00 | 70 | 1015.1 |
| 20260906040028 | 27 | 90 | 0.0 | 0.0 | 0.00 | 0.00 | 0.00 | 70 | 1014.7 |
| 20260906035523 | 27 | 90 | 0.0 | 0.0 | 0.00 | 0.00 | 0.00 | 71 | 1014.7 |
| 20260906035019 | 27 | 90 | 0.0 | 0.0 | 0.00 | 0.00 | 0.00 | 70 | 1014.9 |
| 20260906034519 | 27 | 90 | 0.0 | 0.0 | 0.00 | 0.00 | 0.00 | 71 | 1015.1 |
| 20260906034014 | 27 | 93 | 0.0 | 0.0 | 0.00 | 0.00 | 0.00 | 71 | 1014.6 |
| 20260906033508 | 27 | 91 | 0.0 | 0.0 | 0.00 | 0.00 | 0.00 | 71 | 1014.8 |
| 20260906033004 | 27 | 72 | 0.0 | 0.0 | 0.00 | 0.00 | 0.00 | 71 | 1014.6 |
| 20260906032500 | 27 | 72 | 0.0 | 0.0 | 0.00 | 0.00 | 0.00 | 71 | 1014.8 |
| 20260906031954 | 28 | 72 | 0.0 | 0.0 | 0.00 | 0.00 | 0.00 | 71 | 1014.7 |
| 20260906031450 | 28 | 72 | 0.0 | 0.0 | 0.00 | 0.00 | 0.00 | 70 | 1014.6 |
| 20260906030946 | 28 | 72 | 0.0 | 0.0 | 0.00 | 0.00 | 0.00 | 70 | 1014.6 |
| 20260906030440 | 27 | 72 | 0.0 | 0.0 | 0.00 | 0.00 | 0.00 | 70 | 1014.5 |
| 20260906025934 | 27 | 72 | 0.0 | 0.0 | 0.00 | 0.00 | 0.00 | 70 | 1014.4 |
| 20260906025428 | 28 | 72 | 0.0 | 0.0 | 0.00 | 0.00 | 0.00 | 70 | 1014.2 |
| 20260906024927 | 28 | 72 | 0.0 | 0.0 | 0.00 | 0.00 | 0.00 | 70 | 1014.1 |
| 20260906024427 | 28 | 72 | 0.0 | 0.0 | 0.00 | 0.00 | 0.00 | 70 | 1014.1 |
| 20260906023922 | 28 | 72 | 0.0 | 0.0 | 0.00 | 0.00 | 0.00 | 69 | 1014.2 |
| 20260906023419 | 28 | 72 | 0.0 | 0.0 | 0.00 | 0.00 | 0.00 | 68 | 1014.1 |
| 20260906022918 | 28 | 72 | 0.0 | 0.0 | 0.00 | 0.00 | 0.00 | 68 | 1014.0 |
| 20260906022414 | 28 | 72 | 0.0 | 0.0 | 0.00 | 0.00 | 0.00 | 68 | 1013.9 |
| 20260906021909 | 28 | 72 | 0.0 | 0.0 | 0.00 | 0.00 | 0.00 | 67 | 1013.5 |
| 20260906021408 | 28 | 72 | 0.0 | 0.0 | 0.00 | 0.00 | 0.00 | 66 | 1013.8 |
| 20260906020903 | 29 | 72 | 0.0 | 0.0 | 0.00 | 0.00 | 0.00 | 65 | 1013.8 |
| 20260906020357 | 29 | 71 | 0.0 | 0.0 | 0.00 | 0.00 | 0.00 | 65 | 1013.5 |
| 20260906015852 | 30 | 67 | 1.6 | 3.2 | 0.00 | 0.00 | 0.00 | 64 | 1013.7 |
| 20260906015351 | 30 | 80 | 0.0 | 0.0 | 0.00 | 0.00 | 0.00 | 64 | 1013.6 |
| 20260906014850 | 30 | 57 | 0.0 | 0.0 | 0.00 | 0.00 | 0.00 | 65 | 1013.8 |
| 20260906014345 | 30 | 57 | 0.0 | 0.0 | 0.00 | 0.00 | 0.00 | 65 | 1013.4 |
| 20260906013841 | 30 | 58 | 0.0 | 0.0 | 0.00 | 0.00 | 0.00 | 65 | 1013.3 |
| 20260906013337 | 30 | 56 | 0.0 | 0.0 | 0.00 | 0.00 | 0.00 | 64 | 1013.2 |
| 20260906012832 | 30 | 71 | 0.0 | 0.0 | 0.00 | 0.00 | 0.00 | 63 | 1013.2 |
| 20260906012327 | 30 | 72 | 0.0 | 0.0 | 0.00 | 0.00 | 0.00 | 63 | 1013.3 |
| 20260906011827 | 30 | 66 | 0.0 | 0.0 | 0.00 | 0.00 | 0.00 | 61 | 1013.3 |
| 20260906011322 | 31 | 78 | 1.6 | 1.6 | 0.00 | 0.00 | 0.00 | 61 | 1013.2 |
| 20260906010818 | 31 | 63 | 1.6 | 1.6 | 0.00 | 0.00 | 0.00 | 61 | 1013.5 |
| 20260906010314 | 31 | 338 | 1.6 | 3.2 | 0.00 | 0.00 | 0.00 | 60 | 1013.0 |
| 20260906005809 | 32 | 84 | 0.0 | 0.0 | 0.00 | 0.00 | 0.00 | 55 | 1013.3 |
| 20260906005308 | 31 | 84 | 0.0 | 0.0 | 0.00 | 0.00 | 0.00 | 54 | 1013.1 |
| 20260906004807 | 32 | 83 | 0.0 | 1.6 | 0.00 | 0.00 | 0.00 | 56 | 1013.1 |
| 20260906004307 | 32 | 84 | 0.0 | 0.0 | 0.00 | 0.00 | 0.00 | 54 | 1013.1 |
| 20260906003802 | 32 | 91 | 1.6 | 1.6 | 0.00 | 0.00 | 0.00 | 52 | 1012.9 |
| 20260906003257 | 32 | 92 | 0.0 | 1.6 | 0.00 | 0.00 | 0.00 | 52 | 1013.3 |
| 20260906002752 | 33 | 108 | 0.0 | 0.0 | 0.00 | 0.00 | 0.00 | 50 | 1013.3 |
| 20260906002247 | 33 | 108 | 0.0 | 0.0 | 0.00 | 0.00 | 0.00 | 51 | 1013.0 |
| 20260906001743 | 34 | 108 | 0.0 | 0.0 | 0.00 | 0.00 | 0.00 | 53 | 1013.2 |
| 20260906001237 | 34 | 108 | 0.0 | 0.0 | 0.00 | 0.00 | 0.00 | 47 | 1013.0 |
| 20260906000732 | 35 | 108 | 0.0 | 0.0 | 0.00 | 0.00 | 0.00 | 51 | 1013.3 |
| 20260906000234 | 36 | 108 | 0.0 | 0.0 | 0.00 | 0.00 | 0.00 | 47 | 1012.9 |
| 20260905235727 | 37 | 108 | 0.0 | 1.6 | 0.00 | 0.00 | 0.00 | 42 | 1013.0 |
| 20260905235227 | 38 | 108 | 0.0 | 0.0 | 0.00 | 0.00 | 0.00 | 40 | 1013.1 |
| 20260905234722 | 38 | 108 | 0.0 | 0.0 | 0.00 | 0.00 | 0.00 | 41 | 1013.1 |
| 20260905234218 | 38 | 108 | 0.0 | 0.0 | 0.00 | 0.00 | 0.00 | 38 | 1013.1 |
| 20260905233713 | 39 | 109 | 0.0 | 0.0 | 0.00 | 0.00 | 0.00 | 38 | 1012.8 |
| 20260905233212 | 38 | 108 | 0.0 | 0.0 | 0.00 | 0.00 | 0.00 | 38 | 1013.2 |
| 20260905232708 | 38 | 109 | 0.0 | 0.0 | 0.00 | 0.00 | 0.00 | 40 | 1013.0 |
| 20260905232203 | 37 | 151 | 0.0 | 0.0 | 0.00 | 0.00 | 0.00 | 39 | 1013.0 |
| 20260905231659 | 37 | 103 | 0.0 | 1.6 | 0.00 | 0.00 | 0.00 | 41 | 1013.0 |
| 20260905231154 | 38 | 135 | 4.8 | 4.8 | 0.00 | 0.00 | 0.00 | 39 | 1013.2 |
| 20260905230650 | 38 | 117 | 1.6 | 1.6 | 0.00 | 0.00 | 0.00 | 39 | 1013.0 |
| 20260905230148 | 38 | 101 | 3.2 | 3.2 | 0.00 | 0.00 | 0.00 | 39 | 1013.0 |
| 20260905225648 | 38 | 122 | 0.0 | 0.0 | 0.00 | 0.00 | 0.00 | 40 | 1012.9 |
| 20260905225143 | 37 | 89 | 3.2 | 3.2 | 0.00 | 0.00 | 0.00 | 40 | 1013.0 |
| 20260905224642 | 37 | 56 | 1.6 | 1.6 | 0.00 | 0.00 | 0.00 | 39 | 1013.1 |
| 20260905224136 | 37 | 90 | 0.0 | 1.6 | 0.00 | 0.00 | 0.00 | 41 | 1013.0 |
| 20260905223633 | 37 | 121 | 3.2 | 3.2 | 0.00 | 0.00 | 0.00 | 40 | 1013.2 |
| 20260905223130 | 36 | 123 | 0.0 | 1.6 | 0.00 | 0.00 | 0.00 | 43 | 1013.2 |
| 20260905222625 | 36 | 106 | 0.0 | 0.0 | 0.00 | 0.00 | 0.00 | 42 | 1013.0 |
| 20260905222120 | 37 | 19 | 1.6 | 1.6 | 0.00 | 0.00 | 0.00 | 39 | 1013.0 |
| 20260905221616 | 37 | 99 | 0.0 | 0.0 | 0.00 | 0.00 | 0.00 | 39 | 1013.3 |
| 20260905221112 | 37 | 74 | 1.6 | 1.6 | 0.00 | 0.00 | 0.00 | 39 | 1013.4 |
| 20260905220607 | 37 | 164 | 6.4 | 6.4 | 0.00 | 0.00 | 0.00 | 39 | 1013.4 |
| 20260905220103 | 37 | 117 | 0.0 | 0.0 | 0.00 | 0.00 | 0.00 | 39 | 1013.3 |
| 20260905215602 | 38 | 25 | 3.2 | 3.2 | 0.00 | 0.00 | 0.00 | 39 | 1013.5 |
| 20260905215058 | 37 | 168 | 3.2 | 4.8 | 0.00 | 0.00 | 0.00 | 38 | 1013.4 |
| 20260905214554 | 37 | 149 | 1.6 | 3.2 | 0.00 | 0.00 | 0.00 | 39 | 1013.3 |
| 20260905214049 | 37 | 84 | 1.6 | 3.2 | 0.00 | 0.00 | 0.00 | 39 | 1013.6 |
| 20260905213544 | 37 | 114 | 3.2 | 4.8 | 0.00 | 0.00 | 0.00 | 39 | 1013.4 |
| 20260905213040 | 38 | 117 | 3.2 | 4.8 | 0.00 | 0.00 | 0.00 | 38 | 1013.7 |
| 20260905212534 | 37 | 154 | 3.2 | 3.2 | 0.00 | 0.00 | 0.00 | 40 | 1013.7 |
| 20260905212034 | 37 | 74 | 6.4 | 6.4 | 0.00 | 0.00 | 0.00 | 39 | 1013.4 |
| 20260905211529 | 37 | 113 | 6.4 | 6.4 | 0.00 | 0.00 | 0.00 | 40 | 1013.7 |
| 20260905211025 | 37 | 75 | 3.2 | 4.8 | 0.00 | 0.00 | 0.00 | 40 | 1013.9 |
| 20260905210520 | 38 | 114 | 3.2 | 4.8 | 0.00 | 0.00 | 0.00 | 39 | 1013.6 |
| 20260905210020 | 37 | 157 | 1.6 | 1.6 | 0.00 | 0.00 | 0.00 | 39 | 1013.7 |
| 20260905205520 | 37 | 162 | 3.2 | 3.2 | 0.00 | 0.00 | 0.00 | 39 | 1013.9 |
| 20260905205019 | 37 | 172 | 0.0 | 0.0 | 0.00 | 0.00 | 0.00 | 41 | 1013.9 |
| 20260905204514 | 37 | 201 | 4.8 | 6.4 | 0.00 | 0.00 | 0.00 | 39 | 1014.0 |
| 20260905204009 | 37 | 177 | 9.7 | 11.3 | 0.00 | 0.00 | 0.00 | 40 | 1014.1 |
| 20260905203504 | 37 | 207 | 6.4 | 9.7 | 0.00 | 0.00 | 0.00 | 40 | 1014.3 |
| 20260905202959 | 37 | 141 | 4.8 | 4.8 | 0.00 | 0.00 | 0.00 | 40 | 1014.3 |
| 20260905202454 | 36 | 124 | 4.8 | 4.8 | 0.00 | 0.00 | 0.00 | 43 | 1014.4 |
| 20260905201950 | 37 | 168 | 6.4 | 9.7 | 0.00 | 0.00 | 0.00 | 41 | 1014.4 |
| 20260905201445 | 39 | 175 | 6.4 | 6.4 | 0.00 | 0.00 | 0.00 | 37 | 1014.5 |
| 20260905200944 | 38 | 224 | 3.2 | 4.8 | 0.00 | 0.00 | 0.00 | 39 | 1014.4 |
| 20260905200441 | 37 | 177 | 3.2 | 4.8 | 0.00 | 0.00 | 0.00 | 41 | 1014.4 |
| 20260905195939 | 37 | 31 | 3.2 | 3.2 | 0.00 | 0.00 | 0.00 | 40 | 1014.6 |
| 20260905195434 | 37 | 148 | 0.0 | 1.6 | 0.00 | 0.00 | 0.00 | 39 | 1014.6 |
| 20260905194930 | 37 | 212 | 3.2 | 3.2 | 0.00 | 0.00 | 0.00 | 40 | 1014.9 |
| 20260905194428 | 36 | 17 | 1.6 | 1.6 | 0.00 | 0.00 | 0.00 | 42 | 1014.7 |
| 20260905193923 | 37 | 111 | 8.0 | 9.7 | 0.00 | 0.00 | 0.00 | 41 | 1014.8 |
| 20260905193418 | 37 | 135 | 3.2 | 4.8 | 0.00 | 0.00 | 0.00 | 43 | 1014.8 |
| 20260905192913 | 37 | 90 | 14.5 | 14.5 | 0.00 | 0.00 | 0.00 | 40 | 1014.8 |
| 20260905192408 | 37 | 187 | 3.2 | 4.8 | 0.00 | 0.00 | 0.00 | 41 | 1014.9 |
| 20260905191903 | 37 | 208 | 12.9 | 14.5 | 0.00 | 0.00 | 0.00 | 42 | 1014.9 |
| 20260905191402 | 37 | 131 | 8.0 | 9.7 | 0.00 | 0.00 | 0.00 | 40 | 1014.9 |
| 20260905190901 | 37 | 248 | 6.4 | 6.4 | 0.00 | 0.00 | 0.00 | 41 | 1015.1 |
| 20260905190354 | 36 | 231 | 3.2 | 4.8 | 0.00 | 0.00 | 0.00 | 43 | 1015.1 |
| 20260905185853 | 37 | 206 | 12.9 | 12.9 | 0.00 | 0.00 | 0.00 | 43 | 1015.1 |
| 20260905185349 | 36 | 168 | 1.6 | 1.6 | 0.00 | 0.00 | 0.00 | 45 | 1015.2 |
| 20260905184848 | 37 | 126 | 8.0 | 9.7 | 0.00 | 0.00 | 0.00 | 41 | 1015.5 |
| 20260905184348 | 37 | 318 | 4.8 | 4.8 | 0.00 | 0.00 | 0.00 | 42 | 1015.4 |
| 20260905183846 | 36 | 87 | 1.6 | 1.6 | 0.00 | 0.00 | 0.00 | 43 | 1015.5 |
| 20260905183342 | 36 | 174 | 8.0 | 9.7 | 0.00 | 0.00 | 0.00 | 44 | 1015.6 |
| 20260905182841 | 36 | 175 | 6.4 | 6.4 | 0.00 | 0.00 | 0.00 | 43 | 1015.7 |
| 20260905182335 | 36 | 176 | 8.0 | 9.7 | 0.00 | 0.00 | 0.00 | 43 | 1015.6 |
| 20260905181831 | 35 | 110 | 11.3 | 12.9 | 0.00 | 0.00 | 0.00 | 44 | 1015.8 |